• MPC Preparation (Info)

  • MPEC 2020-P66 : 2020 PN1

    The following Minor Planet Electronic Circular may be linked-to from your own Web pages, but must not otherwise be redistributed electronically.

    A form allowing access to any MPEC is at the bottom of this page.


    Read MPEC 2020-P65 Read MPEC 2020-P67


    M.P.E.C. 2020-P66                               Issued 2020 August 13, 10:41 UT
    
         The Minor Planet Electronic Circulars contain information on unusual
             minor planets and routine data on comets.  They are published
        on behalf of Division F of the International Astronomical Union by the
              Minor Planet Center, Smithsonian Astrophysical Observatory,
                              Cambridge, MA 02138, U.S.A.
    
                 Prepared using the Tamkin Foundation Computer Network
    
                                  MPC@CFA.HARVARD.EDU
                URL https://www.minorplanetcenter.net/    ISSN 1523-6714
    
                                    2020 PN1                                 
    
    
    Observations:
         K20P01N  C2019 08 28.28430 19 28 52.758-28 12 01.47         21.7 wUEP066F51
         K20P01N  C2019 08 28.29355 19 28 54.367-28 12 21.69         21.3 wUEP066F51
         K20P01N  C2019 08 28.30280 19 28 56.013-28 12 41.83         21.8 wUEP066F51
         K20P01N  C2019 08 28.31204 19 28 57.612-28 13 01.64         21.3 wUEP066F51
         K20P01N  C2020 07 29.42421217 12 43.306+61 27 16.77         20.89GVEP066F51
         K20P01N  C2020 07 29.43102217 12 52.272+61 25 35.80         20.66GVEP066F51
         K20P01N  C2020 07 30.44927317 36 11.551+57 14 51.05         19.75GVEP066F51
         K20P01N  C2020 07 30.46036817 36 23.972+57 11 42.31         19.93GVEP066F51
         K20P01N  C2020 07 30.47146917 36 36.537+57 08 31.86         20.87GVEP066F51
         K20P01N* C2020 08 12.39335819 39 17.51 -05 28 22.9          19.16cVEP066T05
         K20P01N  C2020 08 12.39701719 39 18.05 -05 29 02.6          19.32cVEP066T05
         K20P01N  C2020 08 12.41481119 39 20.74 -05 32 19.1          19.10cVEP066T05
         K20P01N  C2020 08 12.42412519 39 22.20 -05 33 59.8          19.47cVEP066T05
         K20P01N  C2020 08 12.80162 19 40 50.64 -06 43 02.9          20.0 GVEP066N88
         K20P01N  C2020 08 12.80363 19 40 50.95 -06 43 24.8          19.7 GVEP066N88
         K20P01N  C2020 08 12.80413 19 40 51.08 -06 43 29.0          19.4 GVEP066N88
         K20P01N  C2020 08 12.80463 19 40 51.08 -06 43 34.9          19.2 GVEP066N88
         K20P01N KC2020 08 12.82609419 41 10.33 -06 47 26.7          22.2 GVEP066C95
         K20P01N KC2020 08 12.84153419 41 12.90 -06 50 08.1          18.8 GVEP066C95
         K20P01N  C2020 08 12.85623 19 41 13.79 -06 53 02.1          19.9 VVEP066033
         K20P01N  C2020 08 12.85685 19 41 13.89 -06 53 09.1          19.9 VVEP066033
         K20P01N KC2020 08 12.85697919 41 15.49 -06 52 52.0          19.4 GVEP066C95
         K20P01N KC2020 08 12.89416619 41 19.89 -06 59 25.6          20.1 GVEP066L01
         K20P01N KC2020 08 12.89571919 41 20.11 -06 59 42.1          19.5 GVEP066L01
         K20P01N KC2020 08 12.89623719 41 20.21 -06 59 47.4          19.5 GVEP066L01
         K20P01N KC2020 08 12.89753319 41 20.43 -07 00 00.5          19.3 GVEP066L01
         K20P01N  C2020 08 13.13360 19 42 23.76 -07 39 52.4          19.6 GVEP066I52
         K20P01N  C2020 08 13.13408 19 42 23.84 -07 39 57.5          19.5 GVEP066I52
         K20P01N  C2020 08 13.13456 19 42 23.89 -07 40 02.5          19.2 GVEP066I52
         K20P01N  C2020 08 13.13504 19 42 24.00 -07 40 07.4          19.0 GVEP066I52
         K20P01N KC2020 08 13.16978919 42 24.04 -07 46 26.6          18.9 VuEP066H21
         K20P01N KC2020 08 13.17120419 42 24.26 -07 46 40.9          19.5 VuEP066H21
         K20P01N KC2020 08 13.17264419 42 24.48 -07 46 55.5          19.0 VuEP066H21
         K20P01N KC2020 08 13.21065 19 42 31.92 -07 53 18.0          19.5 GVEP066H36
         K20P01N KC2020 08 13.21617 19 42 32.76 -07 54 13.3          19.7 GVEP066H36
         K20P01N KC2020 08 13.22016 19 42 33.35 -07 54 52.7          19.1 GVEP066H36
    
    Observer details:
    033 Karl Schwarzschild Observatory, Tautenburg.  Observers S. Melnikov, U.
        Laux, B. Stecklum.  Measurer B. Stecklum.  1.34-m f/3 Schmidt + CCD.
    C95 SATINO Remote Observatory, Haute Provence.  Observer J. Jahn.  0.60-m
        f/3.2 Newtonian reflector + CCD.
    F51 Pan-STARRS 1, Haleakala.  Observers J. Bulger, T. Lowe, A. Schultz, M.
        Willman, K. Chambers.  Measurers K. Chambers, S. Chastel, T. de Boer, L.
        Denneau, J. Fairlamb, H. Flewelling, M. Huber, C.-C. Lin, E. Magnier, Y.
        Ramanjooloo, R. Wainscoat, R. Weryk.  1.8-m Ritchey-Chretien + CCD.
    H21 Astronomical Research Observatory, Westfield.  Observer R. Holmes.
        Measurers S. Foglia, L. Buzzi, T. Linder, R. Holmes.  0.76-m f/3.0
        astrograph + CCD.
    H36 Sandlot Observatory, Scranton.  Observer G. Hug.  0.56-m reflector + CCD.
    I52 Steward Observatory, Mt. Lemmon Station.  Observer K. W. Wierzchos.
        Measurers E. J. Christensen, G. A. Farneth, D. C. Fuls, A. R. Gibbs, A. D.
        Grauer, H. Groeller, R. A. Kowalski, S. M. Larson, G. J. Leonard, T. A.
        Pruyne, D. Rankin, R. L. Seaman, F. C. Shelly, K. W. Wierzchos.  1.0-m
        reflector + CCD.
    L01 Visnjan Observatory, Tican.  Observers K. Korlevic, K. Floricic, F.
        Hrzenjak, A. Macan, I. Paleka, E. Pettarin, V. Pezo, D. Pujagic.
        Measurers K. Floricic, V. Pezo.  1.0-m f/2.9 reflector + CCD.
    N88 Xingming Observatory #3, Nanshan.  Observer X. Gao.  Measurer Q.-Z. Ye.
        0.6-m f/8 Ritchey-Chretien + CCD.
    T05 ATLAS-HKO, Haleakala.  Observers L. Denneau, J. Tonry, A. Heinze, H.
        Weiland.  Measurers L. Denneau, J. Tonry, A. Heinze, H. Weiland, H.
        Flewelling, A. Fitzsimmons, J. Robinson, N. Erasmus.  0.5-m reflector +
        CCD.
    
    Orbital elements:
    2020 PN1                                                 Earth MOID = 0.0248 AU
    Epoch 2020 May 31.0 TT = JDT 2459000.5                  Veres
    M  32.06967              (2000.0)            P               Q
    n   0.98841470     Peri.   55.40365     -0.93169649     +0.36014351
    a   0.9981058      Node   145.63611     -0.35464198     -0.87373236
    e   0.1269553      Incl.    4.80806     -0.07855396     -0.32693793
    P   1.00           H   25.4           G   0.15           U   3
    Residuals in seconds of arc
    190828 F51  0.3+  0.0     200812 T05  0.8+  1.1+    200812 L01  0.1+  0.2-
    190828 F51  0.1-  0.0     200812 N88  0.9+  0.6+    200812 L01  0.2+  0.2+
    190828 F51  0.1+  0.0     200812 N88  0.1+  0.3-    200813 I52  0.0   0.3+
    190828 F51  0.3-  0.0     200812 N88  0.7+  0.7+    200813 I52  0.1+  0.1+
    200729 F51  0.0   0.1-    200812 N88  0.6-  0.1+    200813 I52  0.3-  0.1+
    200729 F51  0.1-  0.0     200812 C95  0.7+  1.3-    200813 I52  0.1+  0.1+
    200730 F51  0.1+  0.3-    200812 C95  0.0   0.6+    200813 H21  1.0-  0.2-
    200730 F51  0.0   0.2+    200812 033  0.3-  0.3-    200813 H21  0.9-  0.1-
    200730 F51  0.0   0.2+    200812 033  0.4-  0.8-    200813 H21  0.9-  0.2-
    200812 T05  0.2-  0.0     200812 C95  0.4+  0.4-    200813 H36  0.0   0.5-
    200812 T05  0.2-  0.6+    200812 L01  0.3+  0.0     200813 H36  0.2+  0.2-
    200812 T05  0.2+  0.3-    200812 L01  0.2-  0.3-    200813 H36  0.0   0.5+
    
    Ephemeris:
    2020 PN1                 a,e,i = 1.00, 0.13, 5                   q = 0.8714
    Date    TT    R. A. (2000) Decl.     Delta      r    Elong.  Phase     V
    2020 07 14    10 33 55.9 +66 48 50   0.05927 0.9822    53.2   124.0    24.4
    ...
    2020 07 29    17 02 18.3 +62 58 39   0.02894 1.0150    88.5    89.9    20.9
    ...
    2020 08 06    19 03 03.8 +21 53 36   0.02619 1.0317   131.2    47.7    19.4
    ...
    2020 08 12    19 37 42.9 -04 12 27   0.03459 1.0437   150.9    28.2    19.4
    2020 08 13    19 41 44.7 -07 14 27   0.03658 1.0457   152.1    26.9    19.5
    2020 08 14    19 45 27.5 -09 57 27   0.03868 1.0476   152.9    26.2    19.6
    ...
    2020 08 20    20 03 08.3 -21 16 39   0.05309 1.0588   151.3    27.3    20.4
    ...
    2020 08 28    20 20 25.8 -28 42 32   0.07535 1.0726   144.8    32.9    21.3
    ...
    2020 09 12    20 46 54.1 -33 26 33   0.1225  1.0947   133.7    41.6    22.7
    
    M. P. C. Staff               (C) Copyright 2020 MPC           M.P.E.C. 2020-P66
    


    Read MPEC 2020-P65 Read MPEC 2020-P67


    MPEC number:

    Enter an MPEC number in one of the following forms:

    • 1997-B01 (the full form)
    • J97B01 (the packed version of the full form)
    • B01 (the abbreviated form)